Wind_Speed
38 36 33 28 25 22 20 19 19 19 17 14 12 10 8 8 7 4 4 5 6 5 3 3 5 5 8 9 7 5 4 6 9 11 14 16 19 21 25 29 33 35 38
38 36 34 32 28 25 24 21 20 20 17 15 14 12 10 9 9 7 5 4 4 5 3 4 3 4 5 7 5 2 5 7 10 13 16 18 19 22 25 28 31 35 39
38 37 35 34 30 28 27 25 23 22 19 16 14 14 13 11 9 9 8 7 7 7 7 6 7 7 8 7 4 2 4 9 12 8 12 17 19 25 26 29 32 37 39
36 35 34 34 33 32 30 27 26 23 20 17 15 13 14 14 12 10 11 11 11 11 11 10 10 11 11 9 7 6 8 11 11 10 11 16 19 22 24 28 31 35 39
34 33 32 35 37 36 32 29 28 23 22 19 15 11 11 13 14 14 14 13 12 12 12 12 12 15 13 11 9 10 10 11 12 12 13 14 19 24 26 30 31 35 40
33 32 35 37 38 37 35 32 30 26 24 21 16 13 10 11 13 14 14 13 12 13 15 15 14 12 12 10 11 12 12 13 12 13 14 16 20 26 29 32 34 35 38
33 33 33 36 37 38 37 35 31 29 28 25 21 16 15 14 15 15 15 14 14 15 17 16 14 12 11 12 13 14 13 11 12 15 15 18 20 25 30 34 37 42 44
37 33 32 33 35 39 39 36 34 32 30 27 23 20 18 18 16 16 15 14 16 16 17 17 14 12 12 14 14 15 13 13 15 18 19 21 24 28 28 33 36 40 44
38 32 31 33 35 38 38 37 35 33 32 28 25 21 19 20 17 17 14 14 16 17 17 16 16 14 15 15 15 14 14 16 19 21 26 28 30 33 34 32 36 38 39
37 36 34 34 35 35 37 38 37 34 32 31 24 22 22 22 19 17 15 15 15 17 18 18 19 19 20 20 18 18 16 20 21 21 24 27 31 34 35 37 37 37 40
37 40 39 38 37 39 41 42 37 35 32 27 24 22 22 22 19 19 18 16 17 17 19 20 21 22 23 25 25 23 21 21 23 25 26 28 32 36 37 38 40 42 43
37 37 40 42 41 41 42 41 39 35 31 28 26 24 22 23 23 23 21 17 19 19 22 22 23 25 27 28 27 27 26 26 26 27 28 30 32 35 36 35 37 40 41
31 34 37 40 41 40 41 40 39 36 32 29 28 26 26 27 28 27 25 18 16 17 16 17 20 21 24 25 26 28 30 29 29 29 31 32 33 36 37 36 37 39 41
32 34 35 37 38 38 40 40 40 37 32 29 29 29 30 27 31 31 28 26 24 22 21 22 24 24 26 26 27 28 28 30 32 32 33 33 34 36 36 37 38 41 40
31 30 28 29 33 34 37 40 42 39 35 34 34 35 36 36 36 37 36 35 35 36 33 29 29 29 30 30 31 31 31 32 34 36 35 35 36 37 36 36 38 41 40
39 38 36 37 41 30 31 41 42 45 41 40 40 41 41 39 40 40 41 40 40 39 39 37 38 39 36 32 32 32 33 34 36 36 36 36 37 38 37 37 39 41 41
45 49 49 48 27 32 35 33 35 44 48 47 47 47 47 47 47 46 44 44 44 45 44 44 45 45 40 35 33 31 33 35 35 35 35 37 39 39 39 38 39 41 42
54 48 47 34 42 43 40 35 38 43 51 54 55 56 56 51 51 50 48 47 46 48 50 50 49 44 37 33 32 32 34 35 36 35 37 39 39 39 40 39 40 41 42
54 50 42 41 43 45 45 45 46 47 45 47 48 54 56 54 53 52 49 48 50 49 47 46 43 37 34 34 35 36 37 36 37 38 40 40 41 41 42 40 40 42 42
49 50 49 50 47 44 41 39 37 38 38 41 46 45 45 48 50 52 53 54 53 49 42 39 37 37 36 37 38 39 38 39 40 42 43 43 44 43 43 41 42 43 43
47 43 43 42 41 39 37 31 30 31 33 35 38 43 48 51 53 53 51 47 43 38 37 39 39 39 39 40 39 40 42 43 43 44 45 46 45 43 43 43 44 42 44
48 47 44 44 44 41 43 38 33 32 34 37 39 41 42 42 43 43 43 42 41 40 40 40 40 40 41 41 42 43 44 46 48 50 50 48 46 45 47 47 45 44 43
53 52 51 50 50 48 48 48 41 37 36 37 38 42 43 44 44 44 43 42 41 42 42 43 42 43 44 45 46 48 50 51 51 51 50 48 49 50 51 49 48 45 44
62 61 59 59 57 56 52 55 52 46 39 38 38 42 46 46 46 48 48 47 45 45 45 45 47 48 49 50 51 52 52 52 53 53 54 54 55 55 54 51 49 47 47
69 67 66 64 64 63 60 55 55 52 47 44 42 44 46 48 49 49 49 50 49 49 49 50 50 52 54 55 54 55 56 56 58 59 59 59 59 57 53 50 50 50 49
75 74 72 71 71 73 71 65 60 58 59 55 47 49 49 48 50 49 50 52 53 53 54 55 56 57 58 59 59 60 62 64 63 64 65 64 63 59 53 52 52 52 52
Wind_Direction
202 202 202 203 201 203 205 211 213 210 207 200 200 199 196 185 176 166 164 158 156 177 186 166 128 135 149 151 147 127 77 30 4 3 359 359 354 352 353 353 353 354 354
204 206 206 203 203 203 205 211 213 208 210 211 211 213 210 204 202 195 195 209 195 205 183 217 200 187 184 183 184 113 29 5 348 339 343 348 345 345 349 348 350 351 348
210 208 209 208 204 205 207 210 206 207 214 222 218 218 217 213 208 210 213 217 231 233 218 218 219 209 208 208 227 290 331 339 341 323 325 336 340 337 346 344 346 342 342
213 217 215 211 209 209 209 213 205 205 213 220 215 207 201 204 211 214 224 226 230 235 238 225 214 214 212 218 239 279 308 316 330 340 340 352 345 341 336 338 342 341 339
211 213 214 215 214 213 208 211 208 204 209 204 200 192 178 186 201 214 227 232 235 234 237 232 222 219 217 218 239 269 295 314 328 342 349 354 344 344 343 341 343 340 337
211 212 216 215 216 214 209 209 208 204 204 205 204 206 206 199 212 220 231 244 242 232 225 225 225 222 221 229 252 286 305 308 322 343 359 353 349 345 343 342 341 344 343
212 215 216 216 217 213 212 208 207 207 208 210 214 222 232 234 229 229 232 241 240 235 224 218 222 225 238 250 272 288 294 303 327 343 353 348 350 344 347 346 342 343 342
214 216 218 218 217 216 214 207 209 210 212 217 221 226 235 236 233 228 235 242 238 235 227 222 227 239 257 268 277 287 297 319 327 338 342 340 344 343 345 350 351 347 342
216 216 216 217 217 217 214 209 212 214 217 221 225 232 234 237 232 234 239 240 239 236 234 233 238 252 265 277 286 292 307 320 325 332 337 334 338 339 340 342 346 345 349
217 219 216 217 216 216 215 215 215 214 215 221 226 232 230 234 237 239 244 239 243 242 243 246 250 259 269 277 285 287 303 306 318 328 332 331 334 334 338 338 350 350 349
218 219 219 217 217 214 214 218 220 220 221 225 229 233 231 238 236 235 239 248 245 246 248 250 255 260 268 274 281 291 294 300 309 317 323 328 330 329 334 338 345 350 350
222 219 219 219 219 219 219 219 221 224 224 225 226 224 223 226 227 234 249 250 243 246 244 247 254 260 265 272 279 284 288 295 302 307 314 318 321 323 327 332 340 346 347
221 227 223 222 224 225 223 222 220 222 220 219 222 223 222 225 231 242 254 253 250 248 255 255 255 262 266 270 277 279 283 287 291 300 305 308 314 316 322 326 335 342 344
213 215 218 221 226 226 228 225 224 224 221 221 225 229 230 234 234 239 251 263 264 267 266 267 270 269 269 270 274 278 285 291 295 298 299 303 308 312 318 322 328 338 342
217 214 214 219 222 224 228 229 226 224 219 224 228 230 233 237 240 239 245 252 260 269 272 277 285 291 290 284 280 282 288 295 298 297 298 302 305 308 314 317 322 331 338
221 215 216 222 233 211 223 228 233 231 224 224 227 233 237 239 243 246 249 253 259 266 273 276 281 290 293 284 281 284 289 290 291 292 296 299 302 304 309 313 318 326 332
222 220 218 224 226 229 230 236 233 234 232 230 232 234 238 241 244 247 253 257 262 267 272 275 281 287 287 281 279 282 285 285 287 290 295 298 299 301 304 309 314 323 326
226 241 237 230 215 227 228 236 228 230 238 236 236 239 239 242 250 255 257 262 268 270 272 277 280 278 274 274 278 280 283 283 287 292 296 296 297 298 301 307 311 319 323
227 229 226 225 224 229 233 237 241 244 250 252 254 253 250 248 250 257 262 269 273 277 281 280 273 270 270 274 277 279 280 282 287 290 294 295 296 297 300 305 310 316 319
221 223 225 228 230 233 232 232 234 239 245 251 256 258 256 254 254 259 265 271 274 276 271 267 269 270 271 274 275 276 278 282 286 289 292 296 298 297 299 305 310 311 311
232 229 230 231 229 229 229 229 239 249 252 253 254 254 255 256 258 262 265 267 267 265 268 270 271 270 271 271 274 277 279 282 287 289 292 295 295 295 299 304 307 306 308
235 237 239 239 238 241 235 232 238 248 253 254 251 251 252 254 257 258 259 261 262 264 265 267 270 271 273 274 277 278 281 285 287 289 291 291 291 294 298 300 301 303 302
237 240 242 244 244 242 243 240 241 251 257 259 261 258 254 254 255 256 257 259 259 261 265 267 270 272 273 276 278 282 283 286 287 288 289 289 292 294 295 296 299 301 299
239 240 242 246 248 247 246 245 248 251 256 260 261 262 260 258 259 261 260 259 260 263 266 269 272 273 274 276 279 282 284 286 287 289 290 290 293 293 294 295 297 297 295
242 242 243 243 248 252 251 251 250 253 252 258 258 259 260 260 260 261 262 263 264 264 265 266 268 270 274 276 278 281 284 285 287 287 286 286 290 292 291 290 293 292 290
244 246 246 246 248 253 256 254 257 256 258 262 256 259 257 262 263 262 265 267 268 269 271 271 271 272 275 277 279 282 285 287 287 287 285 284 286 288 290 285 284 284 287
Height
5904 5909 5915 5921 5925 5929 5933 5936 5939 5941 5944 5945 5946 5946 5948 5950 5951 5953 5954 5955 5956 5957 5958 5959 5960 5961 5962 5962 5963 5963 5962 5962 5960 5959 5957 5955 5952 5950 5946 5943 5940 5936 5933
5900 5905 5910 5915 5920 5925 5929 5932 5936 5938 5941 5943 5944 5944 5945 5947 5949 5951 5953 5954 5955 5956 5957 5958 5959 5960 5961 5962 5961 5962 5962 5961 5960 5957 5955 5954 5951 5949 5946 5942 5938 5935 5930
5896 5900 5905 5911 5916 5921 5925 5928 5932 5935 5938 5940 5941 5941 5942 5944 5947 5949 5950 5952 5953 5954 5954 5956 5957 5959 5959 5960 5960 5961 5961 5960 5959 5958 5956 5953 5951 5947 5944 5940 5936 5931 5926
5892 5898 5903 5908 5912 5916 5921 5925 5929 5932 5935 5937 5937 5938 5939 5941 5942 5945 5947 5949 5950 5951 5951 5953 5954 5956 5957 5958 5959 5959 5960 5959 5958 5957 5955 5952 5949 5946 5942 5938 5935 5928 5924
5887 5893 5899 5903 5907 5911 5916 5921 5925 5928 5931 5933 5934 5935 5937 5938 5939 5941 5943 5945 5947 5948 5949 5950 5951 5952 5954 5956 5957 5957 5958 5957 5955 5954 5952 5950 5947 5943 5939 5933 5928 5925 5921
5883 5889 5892 5896 5900 5907 5911 5916 5921 5924 5927 5929 5930 5931 5933 5935 5936 5938 5939 5941 5943 5944 5945 5947 5948 5950 5952 5953 5954 5954 5954 5953 5952 5951 5949 5947 5944 5939 5935 5929 5923 5919 5916
5879 5882 5886 5891 5896 5902 5906 5911 5916 5920 5922 5924 5926 5927 5928 5931 5933 5934 5935 5937 5939 5940 5942 5944 5946 5947 5949 5950 5950 5951 5950 5950 5948 5947 5946 5943 5940 5936 5931 5927 5920 5912 5906
5872 5876 5881 5886 5891 5896 5901 5907 5910 5915 5918 5919 5922 5923 5925 5927 5929 5930 5932 5934 5935 5936 5938 5940 5943 5944 5945 5946 5946 5946 5946 5944 5943 5942 5940 5939 5936 5931 5927 5923 5917 5909 5901
5867 5873 5877 5881 5886 5891 5897 5901 5905 5909 5913 5916 5917 5920 5922 5923 5925 5927 5929 5930 5932 5933 5935 5937 5939 5940 5940 5941 5942 5942 5941 5939 5937 5935 5933 5931 5928 5925 5921 5918 5912 5905 5899
5864 5869 5872 5876 5881 5887 5892 5896 5899 5903 5907 5910 5914 5917 5918 5920 5922 5924 5926 5928 5929 5930 5931 5933 5934 5935 5936 5936 5938 5938 5938 5935 5933 5932 5930 5928 5925 5921 5917 5911 5905 5899 5892
5856 5861 5867 5872 5876 5880 5883 5889 5895 5898 5902 5907 5910 5912 5914 5916 5918 5919 5922 5924 5925 5926 5927 5928 5929 5930 5930 5931 5931 5933 5933 5931 5930 5928 5926 5923 5920 5916 5912 5906 5898 5892 5885
5849 5855 5860 5865 5870 5874 5878 5883 5889 5893 5898 5901 5904 5907 5909 5910 5912 5914 5917 5919 5920 5921 5922 5923 5924 5925 5925 5925 5926 5927 5927 5926 5924 5923 5921 5918 5915 5912 5908 5904 5898 5891 5884
5844 5850 5854 5859 5864 5868 5873 5877 5881 5886 5891 5895 5898 5901 5903 5904 5906 5908 5910 5913 5914 5916 5917 5918 5919 5919 5919 5919 5919 5920 5919 5919 5918 5916 5914 5912 5909 5906 5902 5897 5893 5887 5880
5838 5842 5846 5852 5857 5861 5866 5871 5876 5880 5886 5889 5892 5894 5896 5899 5901 5902 5904 5906 5908 5910 5912 5912 5913 5913 5913 5913 5913 5913 5912 5911 5910 5908 5906 5904 5902 5898 5895 5891 5887 5881 5874
5831 5835 5840 5845 5849 5854 5859 5863 5868 5873 5878 5881 5884 5886 5888 5891 5892 5894 5897 5899 5900 5902 5903 5905 5905 5906 5906 5906 5905 5904 5904 5903 5901 5900 5898 5896 5893 5890 5887 5883 5879 5874 5868
5823 5826 5830 5834 5837 5848 5852 5855 5859 5865 5869 5872 5875 5878 5880 5882 5883 5885 5887 5889 5891 5892 5894 5895 5896 5896 5896 5896 5895 5895 5895 5894 5892 5890 5888 5886 5884 5881 5879 5875 5871 5866 5861
5814 5818 5819 5822 5833 5840 5845 5846 5849 5854 5859 5863 5865 5868 5870 5872 5873 5874 5877 5879 5881 5883 5885 5885 5886 5886 5886 5885 5885 5885 5885 5883 5882 5880 5879 5877 5874 5872 5869 5867 5863 5858 5853
5803 5796 5804 5812 5824 5831 5834 5835 5838 5843 5847 5851 5853 5854 5857 5862 5864 5865 5866 5868 5871 5872 5874 5875 5876 5876 5875 5875 5875 5875 5874 5873 5872 5870 5869 5867 5865 5862 5860 5857 5853 5850 5845
5795 5799 5804 5811 5817 5820 5823 5826 5830 5834 5837 5840 5843 5845 5847 5850 5852 5854 5855 5857 5859 5860 5861 5862 5864 5864 5864 5864 5864 5864 5863 5862 5861 5860 5858 5856 5854 5852 5849 5847 5843 5840 5836
5789 5793 5797 5801 5805 5808 5812 5817 5821 5824 5827 5829 5831 5832 5835 5838 5841 5842 5844 5845 5847 5848 5849 5851 5852 5852 5853 5853 5853 5853 5852 5851 5850 5849 5847 5845 5842 5840 5838 5836 5833 5829 5826
5778 5782 5786 5790 5794 5798 5802 5806 5809 5813 5816 5818 5820 5822 5824 5827 5829 5831 5832 5834 5834 5835 5837 5838 5839 5840 5841 5841 5841 5841 5840 5839 5838 5836 5835 5833 5830 5829 5827 5824 5821 5818 5814
5765 5771 5775 5779 5783 5787 5791 5794 5798 5802 5805 5807 5809 5811 5813 5816 5817 5819 5820 5821 5822 5823 5824 5825 5827 5828 5829 5829 5829 5828 5827 5826 5825 5823 5822 5820 5818 5816 5814 5812 5809 5805 5802
5753 5757 5763 5768 5772 5775 5779 5783 5786 5790 5792 5795 5797 5800 5801 5803 5806 5807 5808 5809 5810 5811 5811 5812 5813 5814 5814 5814 5814 5813 5812 5811 5811 5809 5808 5806 5805 5802 5800 5797 5795 5792 5789
5739 5743 5748 5753 5758 5762 5766 5769 5773 5776 5779 5782 5784 5786 5788 5789 5791 5793 5795 5795 5796 5797 5798 5799 5799 5799 5799 5799 5799 5798 5797 5796 5795 5794 5793 5792 5790 5788 5786 5784 5781 5778 5775
5721 5727 5732 5737 5743 5747 5751 5754 5758 5762 5764 5768 5770 5772 5774 5775 5776 5779 5780 5781 5782 5783 5783 5784 5785 5785 5783 5783 5783 5782 5781 5780 5779 5777 5776 5775 5773 5772 5771 5768 5766 5763 5760
5702 5707 5714 5720 5725 5730 5733 5737 5741 5744 5748 5751 5754 5757 5759 5760 5761 5761 5762 5763 5764 5766 5766 5767 5768 5767 5767 5767 5766 5766 5764 5763 5762 5760 5758 5756 5756 5755 5753 5751 5748 5746 5745